TimeCDT,TemperatureF,Dew PointF,Humidity,Sea Level PressureIn,VisibilityMPH,Wind Direction,Wind SpeedMPH,Gust SpeedMPH,PrecipitationIn,Events,Conditions,WindDirDegrees,DateUTC
12:53 AM,32.0,26.1,79,30.36,10.0,SSW,5.8,-,N/A,,Clear,210,2013-10-25 05:53:00
1:53 AM,28.0,23.0,81,30.35,10.0,Calm,Calm,-,N/A,,Clear,0,2013-10-25 06:53:00
2:53 AM,25.0,23.0,92,30.35,10.0,ESE,4.6,-,N/A,,Clear,120,2013-10-25 07:53:00
3:53 AM,26.1,24.1,92,30.32,10.0,ESE,5.8,-,N/A,,Mostly Cloudy,120,2013-10-25 08:53:00
4:53 AM,28.0,25.0,88,30.30,10.0,SSE,6.9,-,N/A,,Clear,160,2013-10-25 09:53:00
5:53 AM,28.9,26.1,89,30.28,10.0,South,6.9,-,N/A,,Mostly Cloudy,170,2013-10-25 10:53:00
6:53 AM,28.9,26.1,89,30.25,10.0,SSE,8.1,-,N/A,,Clear,160,2013-10-25 11:53:00
7:53 AM,32.0,28.9,88,30.23,10.0,South,6.9,-,N/A,,Clear,180,2013-10-25 12:53:00
8:53 AM,35.1,32.0,89,30.21,10.0,South,9.2,-,N/A,,Clear,180,2013-10-25 13:53:00
9:53 AM,39.9,36.0,86,30.19,10.0,SSW,6.9,-,N/A,,Clear,200,2013-10-25 14:53:00
10:53 AM,46.9,37.9,71,30.17,10.0,SSW,9.2,-,N/A,,Clear,210,2013-10-25 15:53:00
11:53 AM,53.1,39.9,61,30.13,10.0,SSW,9.2,-,N/A,,Clear,210,2013-10-25 16:53:00
12:53 PM,55.9,39.9,55,30.10,10.0,SSW,13.8,-,N/A,,Clear,200,2013-10-25 17:53:00
1:53 PM,61.0,42.1,50,30.04,10.0,SW,16.1,20.7,N/A,,Clear,230,2013-10-25 18:53:00
2:53 PM,64.0,41.0,43,30.01,10.0,SSW,13.8,25.3,N/A,,Clear,210,2013-10-25 19:53:00
3:53 PM,64.9,41.0,42,29.99,10.0,SW,12.7,21.9,N/A,,Clear,230,2013-10-25 20:53:00
4:53 PM,66.0,41.0,40,29.96,10.0,SW,15.0,21.9,N/A,,Clear,220,2013-10-25 21:53:00
5:53 PM,64.0,41.0,43,29.94,10.0,SW,10.4,-,N/A,,Clear,230,2013-10-25 22:53:00
6:53 PM,57.9,42.1,56,29.93,10.0,SSW,8.1,-,N/A,,Clear,200,2013-10-25 23:53:00
7:53 PM,55.9,42.1,60,29.96,10.0,WSW,6.9,-,N/A,,Clear,240,2013-10-26 00:53:00
8:53 PM,54.0,41.0,62,29.96,10.0,WSW,10.4,-,N/A,,Clear,240,2013-10-26 01:53:00
9:53 PM,52.0,42.1,69,29.99,10.0,WNW,10.4,-,N/A,,Clear,300,2013-10-26 02:53:00
10:53 PM,51.1,39.9,66,30.01,10.0,NNW,12.7,23.0,N/A,,Clear,330,2013-10-26 03:53:00
11:53 PM,45.0,37.0,74,30.02,10.0,NW,10.4,-,N/A,,Clear,320,2013-10-26 04:53:00